Weather History for Coatesville, PA

Change the Weather History Date:

Sunday, October 28, 2012

  Actual Average (KLNS) Record (KLNS)
Temperature  
Mean Temperature 54 °F -  
Max Temperature 57 °F 64 °F 82 °F (1984)
Min Temperature 51 °F 41 °F 30 °F (1978)
Degree Days  
Heating Degree Days 11    
Growing Degree Days 4 (Base 50)    
Moisture  
Dew Point 49 °F    
Average Humidity 84    
Maximum Humidity 100    
Minimum Humidity 67    
Precipitation  
Precipitation 1.20 in - - ()
Sea Level Pressure  
Sea Level Pressure 29.79 in    
Wind  
Wind Speed 7 mph (NE)    
Max Wind Speed 13 mph    
Max Gust Speed 24 mph    
Visibility 8 miles    
Events Rain    
Averages and records for this station are not official NWS values.
T = Trace of Precipitation, MM = Missing Value Source: NWS Daily Summary

Daily Weather History Graph

Daily Weather History Graph

Search for Another Location

Airport:

Trip Planner

Search our weather history database for the weather conditions in past years. The results will help you decide how hot, cold, wet, or windy it might be!

Date:

Astronomy

Oct. 28, 2012 Rise Set
Actual Time 7:28 AM EDT 6:05 PM EDT
Civil Twilight 7:00 AM EDT 6:33 PM EDT
Nautical Twilight 6:28 AM EDT 7:04 PM EDT
Astronomical Twilight 5:57 AM EDT 7:36 PM EDT
Moon 5:21 PM EDT (10/28) 6:19 AM EDT (10/28)
Length of Visible Light 11h 32m
Length of Day
10h 36m
Waxing Gibbous, 99% of the Moon is Illuminated
Oct 28
Waxing Gibbous
Oct 29
Full
Nov 6
Last Quarter
Nov 13
New
Nov 20
First Quarter

Hourly Weather History & Observations

Time (EDT) Temp. Dew Point Humidity Pressure Visibility Wind Dir Wind Speed Gust Speed Precip Events Conditions
12:15 AM 57.2 °F 51.8 °F 82% 29.91 in 10.0 mi NNE 5.8 mph - N/A   Clear
12:35 AM 57.2 °F 51.8 °F 82% 29.90 in 10.0 mi NE 4.6 mph - N/A   Clear
12:55 AM 57.2 °F 50.0 °F 77% 29.90 in 10.0 mi NE 4.6 mph - N/A   Clear
1:15 AM 57.2 °F 48.2 °F 72% 29.90 in 10.0 mi ENE 5.8 mph - N/A   Clear
1:35 AM 57.2 °F 50.0 °F 77% 29.89 in 10.0 mi NE 3.5 mph - N/A   Clear
1:55 AM 57.2 °F 51.8 °F 82% 29.88 in 10.0 mi NE 5.8 mph - N/A   Clear
2:35 AM 57.2 °F 53.6 °F 88% 29.88 in 10.0 mi NE 5.8 mph - N/A   Clear
2:55 AM 57.2 °F 53.6 °F 88% 29.88 in 10.0 mi ENE 5.8 mph - N/A   Clear
3:15 AM 57.2 °F 53.6 °F 88% 29.87 in 10.0 mi NE 4.6 mph - N/A   Clear
3:55 AM 57.2 °F 53.6 °F 88% 29.86 in 10.0 mi NE 4.6 mph - N/A   Clear
4:15 AM 57.2 °F 51.8 °F 82% 29.86 in 10.0 mi NE 4.6 mph - N/A   Clear
4:35 AM 57.2 °F 51.8 °F 82% 29.87 in 10.0 mi ENE 5.8 mph - N/A   Clear
4:55 AM 57.2 °F 51.8 °F 82% 29.86 in 10.0 mi NE 4.6 mph - N/A   Clear
5:15 AM 55.4 °F 51.8 °F 88% 29.86 in 10.0 mi NE 5.8 mph - N/A   Light Drizzle
5:35 AM 55.4 °F 50.0 °F 82% 29.86 in 10.0 mi NE 3.5 mph - N/A Rain Light Rain
5:55 AM 55.4 °F 50.0 °F 82% 29.86 in 10.0 mi NE 5.8 mph - 0.01 in   Clear
6:15 AM 55.4 °F 48.2 °F 77% 29.85 in 10.0 mi NNE 9.2 mph - N/A   Clear
6:35 AM 55.4 °F 48.2 °F 77% 29.84 in 10.0 mi NNE 10.4 mph 16.1 mph N/A   Light Drizzle
6:55 AM 55.4 °F 48.2 °F 77% 29.83 in 10.0 mi NNE 10.4 mph - 0.01 in Rain Light Rain
7:15 AM 55.4 °F 46.4 °F 72% 29.84 in 10.0 mi NNE 8.1 mph - 0.01 in Rain Light Rain
7:35 AM 53.6 °F 46.4 °F 77% 29.85 in 10.0 mi ENE 3.5 mph - 0.02 in Rain Light Rain
7:55 AM 53.6 °F 44.6 °F 72% 29.86 in 8.0 mi NE 5.8 mph 23.0 mph 0.03 in Rain Light Rain
8:15 AM 53.6 °F 42.8 °F 67% 29.86 in 7.0 mi NE 6.9 mph - N/A Rain Light Rain
8:35 AM 51.8 °F 44.6 °F 76% 29.86 in 5.0 mi NE 5.8 mph - 0.03 in Rain Light Rain
8:55 AM 51.8 °F 46.4 °F 82% 29.86 in 6.0 mi NNE 6.9 mph - 0.05 in Rain Light Rain
9:15 AM 51.8 °F 46.4 °F 82% 29.86 in 10.0 mi NNE 5.8 mph - N/A   Partly Cloudy
9:35 AM 51.8 °F 46.4 °F 82% 29.85 in 10.0 mi NNE 8.1 mph - N/A   Clear
9:55 AM 51.8 °F 46.4 °F 82% 29.85 in 10.0 mi NE 6.9 mph - N/A   Clear
10:15 AM 53.6 °F 46.4 °F 77% 29.85 in 10.0 mi NNE 8.1 mph - N/A   Clear
10:35 AM 53.6 °F 46.4 °F 77% 29.84 in 10.0 mi NE 6.9 mph - N/A   Clear
10:55 AM 53.6 °F 46.4 °F 77% 29.83 in 10.0 mi NE 10.4 mph 16.1 mph N/A   Partly Cloudy
11:15 AM 53.6 °F 46.4 °F 77% 29.82 in 10.0 mi NE 10.4 mph 19.6 mph N/A   Clear
11:35 AM 53.6 °F 46.4 °F 77% 29.81 in 10.0 mi NE 10.4 mph 19.6 mph N/A   Scattered Clouds
11:55 AM 53.6 °F 46.4 °F 77% 29.81 in 10.0 mi NE 11.5 mph 24.2 mph N/A   Light Drizzle
12:15 PM 53.6 °F 46.4 °F 77% 29.80 in 10.0 mi NE 11.5 mph 23.0 mph N/A Rain Light Rain
12:35 PM 53.6 °F 46.4 °F 77% 29.79 in 7.0 mi NE 5.8 mph 23.0 mph N/A   Overcast
12:55 PM 53.6 °F 46.4 °F 77% 29.76 in 9.0 mi NNE 10.4 mph 24.2 mph 0.01 in   Overcast
1:15 PM 53.6 °F 46.4 °F 77% 29.76 in 10.0 mi NNE 12.7 mph 21.9 mph N/A   Overcast
1:35 PM 53.6 °F 46.4 °F 77% 29.75 in 10.0 mi NE 12.7 mph 18.4 mph N/A   Overcast
1:55 PM 53.6 °F 46.4 °F 77% 29.76 in 10.0 mi NNE 8.1 mph - N/A   Overcast
2:15 PM 53.6 °F 46.4 °F 77% 29.75 in 10.0 mi NNE 9.2 mph - N/A   Overcast
2:35 PM 53.6 °F 46.4 °F 77% 29.73 in 10.0 mi NE 5.8 mph - N/A   Overcast
2:55 PM 53.6 °F 46.4 °F 77% 29.72 in 10.0 mi NE 8.1 mph - N/A   Overcast
3:15 PM 55.4 °F 48.2 °F 77% 29.73 in 10.0 mi NE 5.8 mph - N/A Rain Light Rain
3:35 PM 53.6 °F 48.2 °F 82% 29.73 in 10.0 mi NE 5.8 mph - N/A   Overcast
3:55 PM 53.6 °F 50.0 °F 88% 29.73 in 2.0 mi NE 9.2 mph - 0.08 in Rain Heavy Rain
4:15 PM 53.6 °F 50.0 °F 88% 29.73 in 4.0 mi NE 3.5 mph - 0.05 in Rain Light Rain
4:35 PM 53.6 °F 50.0 °F 88% 29.70 in 4.0 mi NNE 11.5 mph - 0.09 in Rain Light Rain
4:55 PM 53.6 °F 51.8 °F 94% 29.71 in 2.5 mi NE 5.8 mph - 0.18 in Rain Rain
5:15 PM 53.6 °F 51.8 °F 94% 29.70 in 5.0 mi NNE 10.4 mph - 0.01 in Rain Light Rain
5:35 PM 53.6 °F 51.8 °F 94% 29.70 in 3.0 mi North 6.9 mph - 0.07 in Rain Rain
5:55 PM 51.8 °F 51.8 °F 100% 29.71 in 3.0 mi NNE 5.8 mph - 0.13 in Rain Rain
6:15 PM 51.8 °F 51.8 °F 100% 29.70 in 5.0 mi North 8.1 mph - 0.04 in Rain Rain
6:35 PM 51.8 °F 51.8 °F 100% 29.70 in 5.0 mi NNE 6.9 mph - 0.07 in Rain Rain
6:55 PM 51.8 °F 51.8 °F 100% 29.70 in 4.0 mi NNE 8.1 mph 19.6 mph 0.16 in Rain Rain
7:15 PM 51.8 °F 51.8 °F 100% 29.69 in 5.0 mi NNE 6.9 mph - 0.02 in Rain Light Rain
7:35 PM 51.8 °F 51.8 °F 100% 29.68 in 5.0 mi NNE 10.4 mph 17.3 mph 0.05 in Rain Light Rain
7:55 PM 51.8 °F 51.8 °F 100% 29.68 in 6.0 mi NNE 11.5 mph 19.6 mph 0.07 in Rain Rain
8:15 PM 51.8 °F 51.8 °F 100% 29.68 in 6.0 mi NNE 12.7 mph 20.7 mph N/A Rain Rain
8:35 PM 51.8 °F 51.8 °F 100% 29.68 in 5.0 mi NE 9.2 mph 18.4 mph 0.07 in Rain Rain
8:55 PM 51.8 °F 51.8 °F 100% 29.67 in 5.0 mi NE 10.4 mph 23.0 mph 0.15 in Rain Rain
9:15 PM 51.8 °F 51.8 °F 100% 29.67 in 5.0 mi NE 9.2 mph 21.9 mph 0.04 in Rain Rain
9:55 PM 51.8 °F 51.8 °F 100% 29.67 in 3.0 mi NNE 12.7 mph 18.4 mph 0.24 in Rain Heavy Rain
10:55 PM 53.6 °F 50.0 °F 88% 29.67 in 8.0 mi NNE 9.2 mph 17.3 mph 0.07 in   Overcast
11:15 PM 53.6 °F 50.0 °F 88% 29.65 in 10.0 mi North 9.2 mph - N/A   Overcast
11:35 PM 53.6 °F 50.0 °F 88% 29.65 in 7.0 mi NNE 9.2 mph 16.1 mph 0.01 in Rain Light Rain
11:55 PM 53.6 °F 48.2 °F 82% 29.65 in 10.0 mi NNE 10.4 mph - 0.01 in   Overcast